{"data":{"norad_id":56379,"intl_designator":"2023-061F","name":"STARLINK-6157","alt_names":[],"object_type":"PAYLOAD","status":"ACTIVE","operator":null,"country":"US","launch_date":"2023-05-04","launch_site_code":"AFETR","launch_vehicle":null,"mission":null,"orbit_class":"UNKNOWN","rcs_meters":null,"size_class":null,"mass_kg":null,"dimensions":null,"purposes":["comms"],"wikipedia_slug":null,"has_3d_model":false,"image_url":null,"decayed_at":null,"tle_current":{"epoch":"2026-09-20T11:46:02.424576Z","epoch_age_seconds":113094,"freshness":"FRESH","line1":"1 56379U 23061F   26263.49030584 -.00006908  00000+0 -24147-3 0  9999","line2":"2 56379  43.0042 177.6238 0002006 258.0541 102.0085 15.27610999187643","mean_motion":15.27610999,"eccentricity":0.0002006,"inclination_deg":43.0042,"raan_deg":177.6238,"arg_perigee_deg":258.0541,"mean_anomaly_deg":102.0085,"bstar":-0.00024147,"rev_number":18764,"period_min":94.264835808504,"perigee_km":481.57994014043,"apogee_km":484.33261076254,"semimajor_km":6861.0932754515,"source":"CELESTRAK","updated_at":"2026-09-21T09:00:33.431162Z"}}}